Content
SEND FEEDBACK

Daily
Averages
Monthly
Summary
Germany

GARMISCH-PARTENKIRCHEN, GERMANY


Home > Europe > Germany
Elevation: 2322 feet     Latitude: 47 30N     Longitude: 011 06E

WEATHER
 
SELECT A DAY
Number of Records: 310,937;   Date Range: 7/1/96 - 7/20/14
 
SHARE

PRINT THIS DATA

[ ← Previous Day ]
WEATHER ALMANAC - SEPTEMBER 1, 2013
[ Next Day → ]
[ °C ]   °F
Weather ElementAverageHighLow
Temperature60.4 °F66.2 °F (4:50 pm)56 °F (11:00 pm)
Dewpoint55.6 °F57.2 °F (1:20 am)53 °F (5:00 pm)
Humidity83.8 %94 % (7:50 am)55 % (5:00 pm)
Barometer30.25 in30.33 in (10:50 pm)30.19 in (2:00 am)
Wind Speed3.5 mph10.4 mph (12:50 pm)
Weather ElementAverage
Visibility7.3 mi
Wind DirectionNE (46 °)

Weather ElementTotal
Precipitation---
Heating Degree Days3.9 (Base 65)
Growing Degree Days11.1 (Base 50)
Averaged from 55 records on September 1, 2013
WEATHER CONDITIONS BREAKOUT
WIND DIRECTION BREAKOUT
WEATHER BY HOUR - SEPTEMBER 1, 2013
[ °C ]   °F
Local TimeTemperatureDewpointHumidityBarometerVisibilityWind DirectionWind SpeedGust SpeedPrecipitationEventsConditions
12:50 AM62.6 °F55.4 °F77 %30.21 in6.2 miSouth (170°)4.6 mphRainLight Rain Showers
1:20 AM60.8 °F57.2 °F88 %30.21 in6.2 miVariable1.2 mphDrizzle
1:50 AM60.8 °F57.2 °F88 %30.21 in6.2 miVariable1.2 mphRainLight Rain
2:00 AM61.0 °F57.0 °F84 %30.19 in12.0 mi°2.2 mph
2:20 AM60.8 °F57.2 °F88 %30.21 in6.2 miCalmRainLight Rain Showers
2:50 AM60.8 °F57.2 °F88 %30.21 in6.2 miVariable1.2 mphRainLight Rain Showers
3:20 AM60.8 °F55.4 °F82 %30.21 in6.2 miESE (110°)4.6 mphOvercast
3:50 AM59.0 °F55.4 °F88 %30.21 in6.2 miVariable2.3 mphMostly Cloudy
4:20 AM59.0 °F55.4 °F88 %30.21 in6.2 miENE (60°)4.6 mphMostly Cloudy
4:50 AM59.0 °F55.4 °F88 %30.21 in6.2 miEast (80°)3.5 mphRainLight Rain
5:00 AM59.0 °F56.0 °F85 %30.21 in9.0 miEast (80°)4.5 mphRainLight Rain
5:20 AM59.0 °F55.4 °F88 %30.21 in6.2 miVariable2.3 mphRainLight Rain
5:50 AM59.0 °F55.4 °F88 %30.21 in6.2 miVariable1.2 mphMostly Cloudy
6:20 AM59.0 °F55.4 °F88 %30.21 in6.2 miVariable1.2 mphMostly Cloudy
6:50 AM59.0 °F55.4 °F88 %30.21 in6.2 miVariable1.2 mphMostly Cloudy
7:20 AM59.0 °F55.4 °F88 %30.24 in6.2 miVariable1.2 mphMostly Cloudy
7:50 AM59.0 °F57.2 °F94 %30.24 in6.2 miVariable2.3 mphMostly Cloudy
8:00 AM59.0 °F56.0 °F88 %30.23 in6.0 mi°2.2 mphPartly Cloudy
8:20 AM59.0 °F57.2 °F94 %30.24 in5.6 miVariable2.3 mphRainLight Rain Showers
8:50 AM59.0 °F57.2 °F94 %30.24 in5.6 miVariable2.3 mphRainLight Rain Showers
9:20 AM60.8 °F57.2 °F88 %30.24 in6.2 miVariable1.2 mphRainLight Rain Showers
9:50 AM60.8 °F57.2 °F88 %30.24 in6.2 miVariable1.2 mphRainLight Rain Showers
10:20 AM60.8 °F57.2 °F88 %30.24 in6.2 miVariable1.2 mphRainLight Rain Showers
10:50 AM60.8 °F57.2 °F88 %30.24 in6.2 miVariable1.2 mphRainLight Rain Showers
11:00 AM62.0 °F57.0 °F78 %30.23 in7.0 mi°2.2 mphRainLight Rain Showers
11:20 AM62.6 °F55.4 °F77 %30.27 in6.2 miVariable1.2 mphRainLight Rain Showers
11:50 AM62.6 °F57.2 °F82 %30.27 in6.2 miNE (40°)5.8 mphMostly Cloudy
12:20 PM64.4 °F57.2 °F77 %30.24 in6.2 miENE (60°)9.2 mphMostly Cloudy
12:50 PM62.6 °F55.4 °F77 %30.24 in6.2 miENE (60°)10.4 mphMostly Cloudy
1:20 PM60.8 °F55.4 °F82 %30.27 in4.3 miENE (60°)9.2 mphRainRain Showers
1:50 PM60.8 °F55.4 °F82 %30.27 in6.2 miEast (90°)5.8 mphRainLight Rain Showers
2:00 PM61.0 °F56.0 °F78 %30.24 in16.0 miEast (90°)6.7 mphRainLight Rain Showers
2:20 PM62.6 °F55.4 °F77 %30.24 in6.2 miENE (60°)8.1 mphMostly Cloudy
2:50 PM64.4 °F57.2 °F77 %30.24 in6.2 miNE (50°)9.2 mphMostly Cloudy
3:20 PM64.4 °F55.4 °F73 %30.24 in6.2 miENE (60°)8.1 mphMostly Cloudy
3:50 PM64.4 °F55.4 °F73 %30.24 in6.2 miENE (60°)5.8 mphMostly Cloudy
4:20 PM64.4 °F53.6 °F68 %30.24 in6.2 miEast (90°)4.6 mphMostly Cloudy
4:50 PM66.2 °F53.6 °F64 %30.24 in6.2 miEast (100°)3.5 mphMostly Cloudy
5:00 PM65.0 °F53.0 °F55 %30.20 in25.0 miEast (100°)4.5 mphPartly Cloudy
5:20 PM64.4 °F55.4 °F73 %30.24 in6.2 miENE (70°)4.6 mphMostly Cloudy
5:50 PM62.6 °F55.4 °F77 %30.24 in6.2 miENE (60°)8.1 mphRainLight Rain Showers
6:20 PM60.8 °F55.4 °F82 %30.24 in6.2 miWSW (240°)5.8 mphRainLight Rain Showers
6:50 PM60.8 °F55.4 °F82 %30.27 in6.2 miVariable1.2 mphRainLight Rain Showers
7:20 PM59.0 °F57.2 °F94 %30.27 in6.2 miSouth (170°)3.5 mphRainLight Rain Showers
7:50 PM59.0 °F55.4 °F88 %30.27 in6.2 miVariable2.3 mphMostly Cloudy
8:00 PM58.0 °F55.0 °F85 %30.26 in19.0 mi°2.2 mphRainLight Rain Showers
8:20 PM57.2 °F53.6 °F88 %30.27 in6.2 miSouth (170°)3.5 mphMostly Cloudy
8:50 PM57.2 °F53.6 °F88 %30.30 in6.2 miSouth (170°)3.5 mphMostly Cloudy
9:20 PM57.2 °F53.6 °F88 %30.30 in6.2 miVariable3.5 mphMostly Cloudy
9:50 PM57.2 °F53.6 °F88 %30.30 in6.2 miVariable2.3 mphMostly Cloudy
10:20 PM57.2 °F53.6 °F88 %30.30 in6.2 miVariable1.2 mphMostly Cloudy
10:50 PM57.2 °F53.6 °F88 %30.33 in6.2 miVariable1.2 mphMostly Cloudy
11:00 PM56.0 °F54.0 °F91 %30.32 in19.0 mi°2.2 mphPartly Cloudy
11:20 PM57.2 °F53.6 °F88 %30.33 in6.2 miVariable2.3 mphRainLight Rain
11:50 PM57.2 °F55.4 °F94 %30.33 in6.2 miVariable2.3 mphRainLight Rain
Hourly data recorded from LOWI, located miles away from Garmisch-Partenkirchen, Germany







STORIES FROM OUR PARTNERS